DW3383 Weather Reports


Display with metric or nautical units.
time (UTC)temp
F
wind
direction
speed
MPH
gust
MPH
rain 1hr
in
rain 24hr
in
rain mn
in
humidity
%
barometer
mb
20260902040805 47 227 1.0 2.0 0.00 0.10 0.10 99 1006.1
20260902040305 47 307 0.0 3.0 0.00 0.10 0.10 98 1006.1
20260902030805 47 23 2.0 2.0 0.00 0.10 0.10 99 1005.8
20260902030304 47 20 2.0 3.0 0.00 0.10 0.10 98 1005.7
20260902020804 48 20 2.0 3.0 0.00 0.10 0.10 98 1005.5
20260902010805 48 358 2.0 3.0 0.05 0.10 0.10 96 1005.2
20260902010305 48 14 2.0 6.0 0.05 0.10 0.10 95 1005.1
20260902000805 50 284 3.0 5.0 0.05 0.05 0.05 93 1004.7
20260902000304 50 273 5.0 6.0 0.05 0.05 0.05 93 1004.7
20260901230805 56 244 1.0 3.0 0.00 0.00 0.00 65 1004.2
20260901230305 55 295 1.0 7.0 0.00 0.00 0.00 65 1004.2
20260901220305 53 268 2.0 9.0 0.00 0.00 0.00 73 1004.4
20260901210805 52 289 2.0 8.0 0.00 0.00 0.00 76 1004.4
20260901210305 53 304 1.0 6.0 0.00 0.00 0.00 76 1004.4
20260901200805 52 310 2.0 5.0 0.00 0.00 0.00 76 1004.3
20260901200305 52 287 1.0 7.0 0.00 0.00 0.00 75 1004.3
20260901190805 49 119 4.0 7.0 0.00 0.00 0.00 78 1004.6
20260901190305 49 278 4.0 9.0 0.00 0.00 0.00 80 1004.7
20260901180804 48 281 5.0 8.0 0.00 0.00 0.00 86 1004.7
20260901180305 48 281 5.0 8.0 0.00 0.00 0.00 87 1004.6
20260901170805 46 261 2.0 3.0 0.00 0.00 0.00 92 1004.5
20260901160804 45 290 2.0 3.0 0.00 0.00 0.00 95 1004.4
20260901150805 44 273 3.0 5.0 0.00 0.00 0.00 98 1003.9
20260901150304 44 272 4.0 7.0 0.00 0.00 0.00 98 1003.9
20260901140804 43 272 5.0 9.0 0.00 0.00 0.00 98 1003.5
20260901140304 43 282 6.0 8.0 0.00 0.00 0.00 98 1003.5
20260901130805 43 262 5.0 7.0 0.00 0.00 0.00 98 1003.1
20260901120305 43 142 1.0 7.0 0.00 0.00 0.00 98 1002.7
20260901110805 44 280 4.0 6.0 0.00 0.00 0.00 96 1002.2
20260901110305 44 277 4.0 8.0 0.00 0.00 0.00 97 1002.2
20260901100804 45 272 3.0 5.0 0.00 0.00 0.00 95 1001.9
20260901100305 45 270 3.0 6.0 0.00 0.00 0.00 95 1001.9
20260901090805 45 273 3.0 3.0 0.00 0.00 0.00 93 1001.5
20260901090305 46 272 2.0 5.0 0.00 0.00 0.00 93 1001.4
20260901080805 46 250 2.0 3.0 0.00 0.00 0.00 91 1001.1
20260901080304 46 349 2.0 3.0 0.00 0.00 0.00 91 1001.1
20260901070812 47 232 0.0 2.0 0.00 0.00 0.00 87 1000.5
20260901060805 48 36 2.0 3.0 0.00 0.00 0.00 83 999.9
20260901060305 48 14 3.0 6.0 0.00 0.00 0.00 81 999.9
20260901050804 49 314 3.0 6.0 0.00 0.00 0.00 82 999.3
20260901050304 49 291 3.0 6.0 0.00 0.00 0.00 83 999.2